sat.trackr.live / text

‹ back to catalog

STARLINK-4570

NORAD 53690 · 2022-105AU

PAYLOAD ACTIVE UNKNOWN

§ Identity

Operator
Country
US
Launch date
2022-08-31
Launch site
AFWTR
Launch vehicle
Mass (kg)
RCS (m²)

Purposes: comms

External: N2YO · Heavens-Above · Gunter

§ Orbital elements

Epoch: 2026-05-25T02:48:59.338080Z

Period
95.64 min
Inclination
97.4524°
Eccentricity
0.0001710
Mean motion
15.05658103 rev/d
Perigee alt
548.3 km
Apogee alt
550.7 km
Semi-major
6,927.6 km
B*
-1.1665e-4
RAAN
25.0706°
Arg perigee
92.2877°
Mean anomaly
267.8546°
Rev number
20,473

§ Raw data

STARLINK-45701 53690U 22105AU  26145.11735345 -.00001742  00000+0 -11665-3 0  99972 53690  97.4524  25.0706 0001710  92.2877 267.8546 15.05658103204738

JSON: /api/v1/satellites/53690 · /tle

For live sub-satellite position, see the globe view (requires WebGL).

§ Visibility from observer

Set your observer location to see the next 7 days of passes ≥ 10°. The values pass through the URL so the page stays shareable.

No JS? Fill the form by hand. The geolocation button needs JavaScript.